owner,sensor,date,latitude,longitude,vertical_datum,wind_speed,wind_to_direction,wind_speed_of_gust,qcFlag 
ADCP,ioos:station:wmo:42362:1,2011-09-01T19:30:00Z,27.7950,-90.6480,122.0,13.0,110.0,99.0,'11111222,11111222,11144222' 
ADCP,ioos:station:wmo:42362:1,2011-09-01T19:45:00Z,27.7950,-90.6480,122.0,12.0,100.0,99.0,'11111222,11111222,11144222' 
ADCP,ioos:station:wmo:42362:1,2011-09-01T20:00:00Z,27.7950,-90.6480,122.0,13.0,100.0,99.0,'11111222,11111222,11144222' 
ADCP,ioos:station:wmo:42362:1,2011-09-01T20:15:00Z,27.7950,-90.6480,122.0,14.0,100.0,99.0,'11111222,11111222,11144222' 
ADCP,ioos:station:wmo:42362:1,2011-09-01T20:30:00Z,27.7950,-90.6480,122.0,13.0,100.0,99.0,'11111222,11111222,11144222' 
ADCP,ioos:station:wmo:42362:1,2011-09-01T20:45:00Z,27.7950,-90.6480,122.0,12.0,100.0,99.0,'11111222,11111222,11144222' 
ADCP,ioos:station:wmo:42362:1,2011-09-01T21:00:00Z,27.7950,-90.6480,122.0,12.0,100.0,99.0,'11111222,11111222,11144222' 
ADCP,ioos:station:wmo:42362:1,2011-09-01T21:15:00Z,27.7950,-90.6480,122.0,12.0,90.0,99.0,'11111222,11111222,11144222' 
ADCP,ioos:station:wmo:42362:1,2011-09-01T21:30:00Z,27.7950,-90.6480,122.0,12.0,90.0,99.0,'11111222,11111222,11144222' 
ADCP,ioos:station:wmo:42362:1,2011-09-01T21:45:00Z,27.7950,-90.6480,122.0,12.0,80.0,99.0,'11111222,11111222,11144222' 
ADCP,ioos:station:wmo:42362:1,2011-09-01T22:00:00Z,27.7950,-90.6480,122.0,14.0,80.0,99.0,'11111222,11111222,11144222' 
ADCP,ioos:station:wmo:42362:1,2011-09-01T22:15:00Z,27.7950,-90.6480,122.0,14.0,80.0,99.0,'11111222,11111222,11144222' 
ADCP,ioos:station:wmo:42362:1,2011-09-01T22:30:00Z,27.7950,-90.6480,122.0,13.0,80.0,99.0,'11111222,11111222,11144222' 
ADCP,ioos:station:wmo:42362:1,2011-09-01T22:45:00Z,27.7950,-90.6480,122.0,13.0,80.0,99.0,'11111222,11111222,11144222' 
ADCP,ioos:station:wmo:42362:1,2011-09-01T23:00:00Z,27.7950,-90.6480,122.0,14.0,80.0,99.0,'11111222,11111222,11144222' 
ADCP,ioos:station:wmo:42362:1,2011-09-01T23:15:00Z,27.7950,-90.6480,122.0,14.0,80.0,99.0,'11111222,11111222,11144222' 
ADCP,ioos:station:wmo:42362:1,2011-09-01T23:30:00Z,27.7950,-90.6480,122.0,14.0,80.0,99.0,'11111222,11111222,11144222' 
ADCP,ioos:station:wmo:42362:1,2011-09-01T23:45:00Z,27.7950,-90.6480,122.0,14.0,80.0,99.0,'11111222,11111222,11144222' 
ADCP,ioos:station:wmo:42362:1,2011-09-02T00:00:00Z,27.7950,-90.6480,122.0,14.0,80.0,99.0,'11111222,11111222,11144222' 
ADCP,ioos:station:wmo:42362:1,2011-09-02T00:15:00Z,27.7950,-90.6480,122.0,13.0,80.0,99.0,'11111222,11111222,11144222' 
ADCP,ioos:station:wmo:42362:1,2011-09-02T00:30:00Z,27.7950,-90.6480,122.0,13.0,70.0,99.0,'11111222,11111222,11144222' 
ADCP,ioos:station:wmo:42362:1,2011-09-02T00:45:00Z,27.7950,-90.6480,122.0,14.0,80.0,99.0,'11111222,11111222,11144222' 
ADCP,ioos:station:wmo:42362:1,2011-09-02T01:00:00Z,27.7950,-90.6480,122.0,15.0,80.0,99.0,'11111222,11111222,11144222' 
ADCP,ioos:station:wmo:42362:1,2011-09-02T01:15:00Z,27.7950,-90.6480,122.0,14.0,80.0,99.0,'11111222,11111222,11144222' 
ADCP,ioos:station:wmo:42362:1,2011-09-02T01:30:00Z,27.7950,-90.6480,122.0,14.0,80.0,99.0,'11111222,11111222,11144222' 
ADCP,ioos:station:wmo:42362:1,2011-09-02T01:45:00Z,27.7950,-90.6480,122.0,14.0,80.0,99.0,'11111222,11111222,11144222' 
ADCP,ioos:station:wmo:42362:1,2011-09-02T02:00:00Z,27.7950,-90.6480,122.0,14.0,80.0,99.0,'11111222,11111222,11144222' 
ADCP,ioos:station:wmo:42362:1,2011-09-02T02:15:00Z,27.7950,-90.6480,122.0,14.0,80.0,99.0,'11111222,11111222,11144222' 
ADCP,ioos:station:wmo:42362:1,2011-09-02T02:30:00Z,27.7950,-90.6480,122.0,16.0,100.0,99.0,'11111222,11111222,11144222' 
ADCP,ioos:station:wmo:42362:1,2011-09-02T02:45:00Z,27.7950,-90.6480,122.0,15.0,90.0,99.0,'11111222,11111222,11144222' 
ADCP,ioos:station:wmo:42362:1,2011-09-02T03:00:00Z,27.7950,-90.6480,122.0,16.0,90.0,99.0,'11111222,11111222,11144222' 
ADCP,ioos:station:wmo:42362:1,2011-09-02T03:15:00Z,27.7950,-90.6480,122.0,15.0,100.0,99.0,'11111222,11111222,11144222' 
ADCP,ioos:station:wmo:42362:1,2011-09-02T03:30:00Z,27.7950,-90.6480,122.0,12.0,90.0,99.0,'11111222,11111222,11144222' 
ADCP,ioos:station:wmo:42362:1,2011-09-02T03:45:00Z,27.7950,-90.6480,122.0,14.0,100.0,99.0,'11111222,11111222,11144222' 
ADCP,ioos:station:wmo:42362:1,2011-09-02T04:00:00Z,27.7950,-90.6480,122.0,13.0,100.0,99.0,'11111222,11111222,11144222' 
ADCP,ioos:station:wmo:42362:1,2011-09-02T04:15:00Z,27.7950,-90.6480,122.0,12.0,110.0,99.0,'11111222,11111222,11144222' 
ADCP,ioos:station:wmo:42362:1,2011-09-02T04:30:00Z,27.7950,-90.6480,122.0,12.0,100.0,99.0,'11111222,11111222,11144222' 
ADCP,ioos:station:wmo:42362:1,2011-09-02T04:45:00Z,27.7950,-90.6480,122.0,13.0,100.0,99.0,'11111222,11111222,11144222' 
ADCP,ioos:station:wmo:42362:1,2011-09-02T05:00:00Z,27.7950,-90.6480,122.0,15.0,90.0,99.0,'11111222,11111222,11144222' 
ADCP,ioos:station:wmo:42362:1,2011-09-02T05:15:00Z,27.7950,-90.6480,122.0,15.0,90.0,99.0,'11111222,11111222,11144222' 
ADCP,ioos:station:wmo:42362:1,2011-09-02T05:30:00Z,27.7950,-90.6480,122.0,15.0,90.0,99.0,'11111222,11111222,11144222' 
ADCP,ioos:station:wmo:42362:1,2011-09-02T05:45:00Z,27.7950,-90.6480,122.0,13.0,90.0,99.0,'11111222,11111222,11144222' 
ADCP,ioos:station:wmo:42362:1,2011-09-02T06:00:00Z,27.7950,-90.6480,122.0,11.0,90.0,99.0,'11111222,11111222,11144222' 
ADCP,ioos:station:wmo:42362:1,2011-09-02T06:30:00Z,27.7950,-90.6480,122.0,11.0,110.0,99.0,'11111222,11111222,11144222' 
ADCP,ioos:station:wmo:42362:1,2011-09-02T06:45:00Z,27.7950,-90.6480,122.0,13.0,110.0,99.0,'11111222,11111222,11144222' 
ADCP,ioos:station:wmo:42362:1,2011-09-02T07:00:00Z,27.7950,-90.6480,122.0,12.0,110.0,99.0,'11111222,11111222,11144222' 
ADCP,ioos:station:wmo:42362:1,2011-09-02T07:15:00Z,27.7950,-90.6480,122.0,13.0,110.0,99.0,'11111222,11111222,11144222' 
ADCP,ioos:station:wmo:42362:1,2011-09-02T07:30:00Z,27.7950,-90.6480,122.0,15.0,110.0,99.0,'11111222,11111222,11144222' 
ADCP,ioos:station:wmo:42362:1,2011-09-02T07:45:00Z,27.7950,-90.6480,122.0,12.0,120.0,99.0,'11111222,11111222,11144222' 
ADCP,ioos:station:wmo:42362:1,2011-09-02T08:00:00Z,27.7950,-90.6480,122.0,12.0,110.0,99.0,'11111222,11111222,11144222' 
ADCP,ioos:station:wmo:42362:1,2011-09-02T08:15:00Z,27.7950,-90.6480,122.0,13.0,110.0,99.0,'11111222,11111222,11144222' 
ADCP,ioos:station:wmo:42362:1,2011-09-02T08:30:00Z,27.7950,-90.6480,122.0,13.0,120.0,99.0,'11111222,11111222,11144222' 
ADCP,ioos:station:wmo:42362:1,2011-09-02T08:45:00Z,27.7950,-90.6480,122.0,14.0,120.0,99.0,'11111222,11111222,11144222' 
ADCP,ioos:station:wmo:42362:1,2011-09-02T09:00:00Z,27.7950,-90.6480,122.0,13.0,130.0,99.0,'11111222,11111222,11144222' 
ADCP,ioos:station:wmo:42362:1,2011-09-02T09:15:00Z,27.7950,-90.6480,122.0,10.0,120.0,99.0,'11111222,11111222,11144222' 
ADCP,ioos:station:wmo:42362:1,2011-09-02T09:30:00Z,27.7950,-90.6480,122.0,9.0,100.0,99.0,'11111222,11111222,11144222' 
ADCP,ioos:station:wmo:42362:1,2011-09-02T09:45:00Z,27.7950,-90.6480,122.0,9.0,120.0,99.0,'11111222,11111222,11144222' 
ADCP,ioos:station:wmo:42362:1,2011-09-02T10:00:00Z,27.7950,-90.6480,122.0,8.0,110.0,99.0,'11111222,11111222,11144222' 
ADCP,ioos:station:wmo:42362:1,2011-09-02T10:15:00Z,27.7950,-90.6480,122.0,8.0,110.0,99.0,'11111222,11111222,11144222' 
ADCP,ioos:station:wmo:42362:1,2011-09-02T10:30:00Z,27.7950,-90.6480,122.0,12.0,110.0,99.0,'11111222,11111222,11144222' 
ADCP,ioos:station:wmo:42362:1,2011-09-02T10:45:00Z,27.7950,-90.6480,122.0,11.0,100.0,99.0,'11111222,11111222,11144222' 
ADCP,ioos:station:wmo:42362:1,2011-09-02T11:00:00Z,27.7950,-90.6480,122.0,13.0,100.0,99.0,'11111222,11111222,11144222' 
ADCP,ioos:station:wmo:42362:1,2011-09-02T11:30:00Z,27.7950,-90.6480,122.0,14.0,140.0,99.0,'11111222,11111222,11144222' 
ADCP,ioos:station:wmo:42362:1,2011-09-02T11:45:00Z,27.7950,-90.6480,122.0,99.0,30.0,99.0,'11144222,11111222,11144222' 
ADCP,ioos:station:wmo:42362:1,2011-09-02T12:00:00Z,27.7950,-90.6480,122.0,13.0,120.0,99.0,'11111222,11111222,11144222' 
ADCP,ioos:station:wmo:42362:1,2011-09-02T12:15:00Z,27.7950,-90.6480,122.0,14.0,100.0,99.0,'11111222,11111222,11144222' 
ADCP,ioos:station:wmo:42362:1,2011-09-02T12:30:00Z,27.7950,-90.6480,122.0,16.0,100.0,99.0,'11111222,11111222,11144222' 
ADCP,ioos:station:wmo:42362:1,2011-09-02T12:45:00Z,27.7950,-90.6480,122.0,18.0,100.0,99.0,'11111222,11111222,11144222' 
ADCP,ioos:station:wmo:42362:1,2011-09-02T13:00:00Z,27.7950,-90.6480,122.0,16.0,120.0,99.0,'11111222,11111222,11144222' 
ADCP,ioos:station:wmo:42362:1,2011-09-02T13:15:00Z,27.7950,-90.6480,122.0,18.0,120.0,99.0,'11111222,11111222,11144222' 
ADCP,ioos:station:wmo:42362:1,2011-09-02T13:30:00Z,27.7950,-90.6480,122.0,20.0,130.0,99.0,'11111222,11111222,11144222' 
ADCP,ioos:station:wmo:42362:1,2011-09-02T13:45:00Z,27.7950,-90.6480,122.0,18.0,110.0,99.0,'11111222,11111222,11144222' 
ADCP,ioos:station:wmo:42362:1,2011-09-02T14:00:00Z,27.7950,-90.6480,122.0,15.0,90.0,99.0,'11111222,11111222,11144222' 
ADCP,ioos:station:wmo:42362:1,2011-09-02T14:15:00Z,27.7950,-90.6480,122.0,13.0,110.0,99.0,'11111222,11111222,11144222' 
ADCP,ioos:station:wmo:42362:1,2011-09-02T14:30:00Z,27.7950,-90.6480,122.0,15.0,90.0,99.0,'11111222,11111222,11144222' 
ADCP,ioos:station:wmo:42362:1,2011-09-02T15:00:00Z,27.7950,-90.6480,122.0,8.0,170.0,99.0,'11111222,11111222,11144222' 
ADCP,ioos:station:wmo:42362:1,2011-09-02T15:30:00Z,27.7950,-90.6480,122.0,16.0,140.0,99.0,'11111222,11111222,11144222' 
ADCP,ioos:station:wmo:42362:1,2011-09-02T15:45:00Z,27.7950,-90.6480,122.0,16.0,120.0,99.0,'11111222,11111222,11144222' 
ADCP,ioos:station:wmo:42362:1,2011-09-02T16:00:00Z,27.7950,-90.6480,122.0,12.0,110.0,99.0,'11111222,11111222,11144222' 
ADCP,ioos:station:wmo:42362:1,2011-09-02T16:15:00Z,27.7950,-90.6480,122.0,12.0,140.0,99.0,'11111222,11111222,11144222' 
ADCP,ioos:station:wmo:42362:1,2011-09-02T16:30:00Z,27.7950,-90.6480,122.0,13.0,140.0,99.0,'11111222,11111222,11144222' 
ADCP,ioos:station:wmo:42362:1,2011-09-02T16:45:00Z,27.7950,-90.6480,122.0,13.0,140.0,99.0,'11111222,11111222,11144222' 
ADCP,ioos:station:wmo:42362:1,2011-09-02T17:00:00Z,27.7950,-90.6480,122.0,16.0,140.0,99.0,'11111222,11111222,11144222' 
ADCP,ioos:station:wmo:42362:1,2011-09-02T17:15:00Z,27.7950,-90.6480,122.0,15.0,140.0,99.0,'11111222,11111222,11144222' 
ADCP,ioos:station:wmo:42362:1,2011-09-02T17:30:00Z,27.7950,-90.6480,122.0,16.0,140.0,99.0,'11111222,11111222,11144222' 
ADCP,ioos:station:wmo:42362:1,2011-09-02T17:45:00Z,27.7950,-90.6480,122.0,17.0,140.0,99.0,'11111222,11111222,11144222' 
ADCP,ioos:station:wmo:42362:1,2011-09-02T18:00:00Z,27.7950,-90.6480,122.0,16.0,140.0,99.0,'11111222,11111222,11144222' 
ADCP,ioos:station:wmo:42362:1,2011-09-02T18:15:00Z,27.7950,-90.6480,122.0,16.0,130.0,99.0,'11111222,11111222,11144222' 
ADCP,ioos:station:wmo:42362:1,2011-09-02T18:30:00Z,27.7950,-90.6480,122.0,15.0,130.0,99.0,'11111222,11111222,11144222' 
ADCP,ioos:station:wmo:42362:1,2011-09-02T18:45:00Z,27.7950,-90.6480,122.0,16.0,140.0,99.0,'11111222,11111222,11144222' 
ADCP,ioos:station:wmo:42362:1,2011-09-02T19:00:00Z,27.7950,-90.6480,122.0,16.0,140.0,99.0,'11111222,11111222,11144222' 
ADCP,ioos:station:wmo:42362:1,2011-09-02T19:15:00Z,27.7950,-90.6480,122.0,16.0,140.0,99.0,'11111222,11111222,11144222' 
ADCP,ioos:station:wmo:42362:1,2011-09-02T19:30:00Z,27.7950,-90.6480,122.0,18.0,150.0,99.0,'11111222,11111222,11144222' 
ADCP,ioos:station:wmo:42362:1,2011-09-02T19:45:00Z,27.7950,-90.6480,122.0,20.0,140.0,99.0,'11111222,11111222,11144222' 
ADCP,ioos:station:wmo:42362:1,2011-09-02T20:00:00Z,27.7950,-90.6480,122.0,17.0,130.0,99.0,'11111222,11111222,11144222' 
ADCP,ioos:station:wmo:42362:1,2011-09-02T20:15:00Z,27.7950,-90.6480,122.0,16.0,140.0,99.0,'11111222,11111222,11144222' 
ADCP,ioos:station:wmo:42362:1,2011-09-02T20:30:00Z,27.7950,-90.6480,122.0,15.0,150.0,99.0,'11111222,11111222,11144222' 
ADCP,ioos:station:wmo:42362:1,2011-09-02T20:45:00Z,27.7950,-90.6480,122.0,13.0,150.0,99.0,'11111222,11111222,11144222' 
ADCP,ioos:station:wmo:42362:1,2011-09-02T21:00:00Z,27.7950,-90.6480,122.0,14.0,140.0,99.0,'11111222,11111222,11144222' 
ADCP,ioos:station:wmo:42362:1,2011-09-02T21:15:00Z,27.7950,-90.6480,122.0,15.0,150.0,99.0,'11111222,11111222,11144222' 
ADCP,ioos:station:wmo:42362:1,2011-09-02T21:30:00Z,27.7950,-90.6480,122.0,16.0,150.0,99.0,'11111222,11111222,11144222' 
ADCP,ioos:station:wmo:42362:1,2011-09-02T21:45:00Z,27.7950,-90.6480,122.0,16.0,170.0,99.0,'11111222,11111222,11144222' 
ADCP,ioos:station:wmo:42362:1,2011-09-02T22:00:00Z,27.7950,-90.6480,122.0,13.0,170.0,99.0,'11111222,11111222,11144222' 
ADCP,ioos:station:wmo:42362:1,2011-09-02T22:15:00Z,27.7950,-90.6480,122.0,16.0,170.0,99.0,'11111222,11111222,11144222' 
ADCP,ioos:station:wmo:42362:1,2011-09-02T22:30:00Z,27.7950,-90.6480,122.0,16.0,180.0,99.0,'11111222,11111222,11144222' 
ADCP,ioos:station:wmo:42362:1,2011-09-02T22:45:00Z,27.7950,-90.6480,122.0,14.0,180.0,99.0,'11111222,11111222,11144222' 
ADCP,ioos:station:wmo:42362:1,2011-09-02T23:00:00Z,27.7950,-90.6480,122.0,15.0,180.0,99.0,'11111222,11111222,11144222' 
ADCP,ioos:station:wmo:42362:1,2011-09-02T23:15:00Z,27.7950,-90.6480,122.0,16.0,170.0,99.0,'11111222,11111222,11144222' 
ADCP,ioos:station:wmo:42362:1,2011-09-02T23:30:00Z,27.7950,-90.6480,122.0,14.0,180.0,99.0,'11111222,11111222,11144222' 
ADCP,ioos:station:wmo:42362:1,2011-09-02T23:45:00Z,27.7950,-90.6480,122.0,13.0,170.0,99.0,'11111222,11111222,11144222' 
ADCP,ioos:station:wmo:42362:1,2011-09-03T00:00:00Z,27.7950,-90.6480,122.0,99.0,160.0,99.0,'11144222,11111222,11144222' 
ADCP,ioos:station:wmo:42362:1,2011-09-03T00:15:00Z,27.7950,-90.6480,122.0,12.0,190.0,99.0,'11111222,11111222,11144222' 
ADCP,ioos:station:wmo:42362:1,2011-09-03T00:30:00Z,27.7950,-90.6480,122.0,15.0,180.0,99.0,'11111222,11111222,11144222' 
ADCP,ioos:station:wmo:42362:1,2011-09-03T00:45:00Z,27.7950,-90.6480,122.0,15.0,190.0,99.0,'11111222,11111222,11144222' 
ADCP,ioos:station:wmo:42362:1,2011-09-03T01:00:00Z,27.7950,-90.6480,122.0,15.0,180.0,99.0,'11111222,11111222,11144222' 
ADCP,ioos:station:wmo:42362:1,2011-09-03T01:45:00Z,27.7950,-90.6480,122.0,17.0,200.0,99.0,'11111222,11111222,11144222' 
ADCP,ioos:station:wmo:42362:1,2011-09-03T02:00:00Z,27.7950,-90.6480,122.0,17.0,210.0,99.0,'11111222,11111222,11144222' 
ADCP,ioos:station:wmo:42362:1,2011-09-03T03:15:00Z,27.7950,-90.6480,122.0,28.0,180.0,99.0,'11111222,11111222,11144222' 
ADCP,ioos:station:wmo:42362:1,2011-09-03T03:30:00Z,27.7950,-90.6480,122.0,18.0,180.0,99.0,'11111222,11111222,11144222' 
ADCP,ioos:station:wmo:42362:1,2011-09-03T05:15:00Z,27.7950,-90.6480,122.0,17.0,190.0,99.0,'11111222,11111222,11144222' 
ADCP,ioos:station:wmo:42362:1,2011-09-03T05:30:00Z,27.7950,-90.6480,122.0,19.0,180.0,99.0,'11111222,11111222,11144222' 
ADCP,ioos:station:wmo:42362:1,2011-09-03T05:45:00Z,27.7950,-90.6480,122.0,21.0,190.0,99.0,'11111222,11111222,11144222' 
ADCP,ioos:station:wmo:42362:1,2011-09-03T06:00:00Z,27.7950,-90.6480,122.0,21.0,200.0,99.0,'11111222,11111222,11144222' 
ADCP,ioos:station:wmo:42362:1,2011-09-03T08:00:00Z,27.7950,-90.6480,122.0,19.0,180.0,99.0,'11111222,11111222,11144222' 
ADCP,ioos:station:wmo:42362:1,2011-09-03T08:15:00Z,27.7950,-90.6480,122.0,17.0,180.0,99.0,'11111222,11111222,11144222' 
ADCP,ioos:station:wmo:42362:1,2011-09-03T08:30:00Z,27.7950,-90.6480,122.0,16.0,180.0,99.0,'11111222,11111222,11144222' 
ADCP,ioos:station:wmo:42362:1,2011-09-03T08:45:00Z,27.7950,-90.6480,122.0,15.0,190.0,99.0,'11111222,11111222,11144222' 
ADCP,ioos:station:wmo:42362:1,2011-09-03T11:45:00Z,27.7950,-90.6480,122.0,14.0,200.0,99.0,'11111222,11111222,11144222' 
ADCP,ioos:station:wmo:42362:1,2011-09-03T12:00:00Z,27.7950,-90.6480,122.0,14.0,210.0,99.0,'11111222,11111222,11144222' 
ADCP,ioos:station:wmo:42362:1,2011-09-03T12:15:00Z,27.7950,-90.6480,122.0,14.0,210.0,99.0,'11111222,11111222,11144222' 
ADCP,ioos:station:wmo:42362:1,2011-09-03T12:30:00Z,27.7950,-90.6480,122.0,14.0,220.0,99.0,'11111222,11111222,11144222' 
ADCP,ioos:station:wmo:42362:1,2011-09-03T12:45:00Z,27.7950,-90.6480,122.0,16.0,220.0,99.0,'11111222,11111222,11144222' 
ADCP,ioos:station:wmo:42362:1,2011-09-03T13:00:00Z,27.7950,-90.6480,122.0,17.0,220.0,99.0,'11111222,11111222,11144222' 
ADCP,ioos:station:wmo:42362:1,2011-09-03T13:15:00Z,27.7950,-90.6480,122.0,16.0,220.0,99.0,'11111222,11111222,11144222' 
ADCP,ioos:station:wmo:42362:1,2011-09-03T17:45:00Z,27.7950,-90.6480,122.0,15.0,220.0,99.0,'11111222,11111222,11144222' 
ADCP,ioos:station:wmo:42362:1,2011-09-03T18:00:00Z,27.7950,-90.6480,122.0,16.0,220.0,99.0,'11111222,11111222,11144222' 
ADCP,ioos:station:wmo:42362:1,2011-09-03T18:15:00Z,27.7950,-90.6480,122.0,15.0,220.0,99.0,'11111222,11111222,11144222' 
ADCP,ioos:station:wmo:42362:1,2011-09-03T18:30:00Z,27.7950,-90.6480,122.0,17.0,220.0,99.0,'11111222,11111222,11144222' 
ADCP,ioos:station:wmo:42362:1,2011-09-03T18:45:00Z,27.7950,-90.6480,122.0,18.0,210.0,99.0,'11111222,11111222,11144222' 
ADCP,ioos:station:wmo:42362:1,2011-09-03T19:00:00Z,27.7950,-90.6480,122.0,15.0,220.0,99.0,'11111222,11111222,11144222' 
ADCP,ioos:station:wmo:42362:1,2011-09-03T19:15:00Z,27.7950,-90.6480,122.0,14.0,220.0,99.0,'11111222,11111222,11144222' 
ADCP,ioos:station:wmo:42362:1,2011-09-03T19:30:00Z,27.7950,-90.6480,122.0,15.0,220.0,99.0,'11111222,11111222,11144222' 
ADCP,ioos:station:wmo:42362:1,2011-09-03T19:45:00Z,27.7950,-90.6480,122.0,16.0,220.0,99.0,'11111222,11111222,11144222' 
ADCP,ioos:station:wmo:42362:1,2011-09-04T02:30:00Z,27.7950,-90.6480,122.0,18.0,220.0,99.0,'11111222,11111222,11144222' 
ADCP,ioos:station:wmo:42362:1,2011-09-04T02:45:00Z,27.7950,-90.6480,122.0,18.0,210.0,99.0,'11111222,11111222,11144222' 
ADCP,ioos:station:wmo:42362:1,2011-09-04T03:00:00Z,27.7950,-90.6480,122.0,18.0,220.0,99.0,'11111222,11111222,11144222' 
ADCP,ioos:station:wmo:42362:1,2011-09-04T03:15:00Z,27.7950,-90.6480,122.0,20.0,220.0,99.0,'11111222,11111222,11144222' 
ADCP,ioos:station:wmo:42362:1,2011-09-04T03:30:00Z,27.7950,-90.6480,122.0,20.0,220.0,99.0,'11111222,11111222,11144222' 
ADCP,ioos:station:wmo:42362:1,2011-09-04T03:45:00Z,27.7950,-90.6480,122.0,20.0,220.0,99.0,'11111222,11111222,11144222' 
ADCP,ioos:station:wmo:42362:1,2011-09-04T04:00:00Z,27.7950,-90.6480,122.0,21.0,220.0,99.0,'11111222,11111222,11144222' 
ADCP,ioos:station:wmo:42362:1,2011-09-04T04:15:00Z,27.7950,-90.6480,122.0,21.0,220.0,99.0,'11111222,11111222,11144222' 
ADCP,ioos:station:wmo:42362:1,2011-09-04T04:30:00Z,27.7950,-90.6480,122.0,20.0,210.0,99.0,'11111222,11111222,11144222' 
ADCP,ioos:station:wmo:42362:1,2011-09-04T04:45:00Z,27.7950,-90.6480,122.0,20.0,210.0,99.0,'11111222,11111222,11144222' 
ADCP,ioos:station:wmo:42362:1,2011-09-04T05:00:00Z,27.7950,-90.6480,122.0,20.0,210.0,99.0,'11111222,11111222,11144222' 
ADCP,ioos:station:wmo:42362:1,2011-09-04T05:15:00Z,27.7950,-90.6480,122.0,18.0,210.0,99.0,'11111222,11111222,11144222' 
ADCP,ioos:station:wmo:42362:1,2011-09-04T05:30:00Z,27.7950,-90.6480,122.0,19.0,200.0,99.0,'11111222,11111222,11144222' 
ADCP,ioos:station:wmo:42362:1,2011-09-04T05:45:00Z,27.7950,-90.6480,122.0,20.0,210.0,99.0,'11111222,11111222,11144222' 
ADCP,ioos:station:wmo:42362:1,2011-09-04T06:00:00Z,27.7950,-90.6480,122.0,19.0,200.0,99.0,'11111222,11111222,11144222' 
ADCP,ioos:station:wmo:42362:1,2011-09-04T16:15:00Z,27.7950,-90.6480,122.0,19.0,220.0,99.0,'11111222,11111222,11144222' 
ADCP,ioos:station:wmo:42362:1,2011-09-04T16:30:00Z,27.7950,-90.6480,122.0,19.0,230.0,99.0,'11111222,11111222,11144222' 
ADCP,ioos:station:wmo:42362:1,2011-09-04T16:45:00Z,27.7950,-90.6480,122.0,21.0,220.0,99.0,'11111222,11111222,11144222' 
ADCP,ioos:station:wmo:42362:1,2011-09-04T17:00:00Z,27.7950,-90.6480,122.0,21.0,230.0,99.0,'11111222,11111222,11144222' 
ADCP,ioos:station:wmo:42362:1,2011-09-04T17:15:00Z,27.7950,-90.6480,122.0,20.0,220.0,99.0,'11111222,11111222,11144222' 
ADCP,ioos:station:wmo:42362:1,2011-09-04T17:30:00Z,27.7950,-90.6480,122.0,20.0,230.0,99.0,'11111222,11111222,11144222' 
ADCP,ioos:station:wmo:42362:1,2011-09-04T17:45:00Z,27.7950,-90.6480,122.0,20.0,230.0,99.0,'11111222,11111222,11144222' 
ADCP,ioos:station:wmo:42362:1,2011-09-04T18:00:00Z,27.7950,-90.6480,122.0,19.0,230.0,99.0,'11111222,11111222,11144222' 
ADCP,ioos:station:wmo:42362:1,2011-09-04T18:15:00Z,27.7950,-90.6480,122.0,20.0,230.0,99.0,'11111222,11111222,11144222' 
ADCP,ioos:station:wmo:42362:1,2011-09-04T18:30:00Z,27.7950,-90.6480,122.0,20.0,240.0,99.0,'11111222,11111222,11144222' 
ADCP,ioos:station:wmo:42362:1,2011-09-04T18:45:00Z,27.7950,-90.6480,122.0,19.0,230.0,99.0,'11111222,11111222,11144222' 
ADCP,ioos:station:wmo:42362:1,2011-09-04T19:00:00Z,27.7950,-90.6480,122.0,18.0,230.0,99.0,'11111222,11111222,11144222' 
ADCP,ioos:station:wmo:42362:1,2011-09-04T19:15:00Z,27.7950,-90.6480,122.0,18.0,230.0,99.0,'11111222,11111222,11144222' 
ADCP,ioos:station:wmo:42362:1,2011-09-04T19:30:00Z,27.7950,-90.6480,122.0,20.0,230.0,99.0,'11111222,11111222,11144222' 
ADCP,ioos:station:wmo:42362:1,2011-09-04T19:45:00Z,27.7950,-90.6480,122.0,20.0,230.0,99.0,'11111222,11111222,11144222' 
ADCP,ioos:station:wmo:42362:1,2011-09-04T20:00:00Z,27.7950,-90.6480,122.0,18.0,220.0,99.0,'11111222,11111222,11144222' 
ADCP,ioos:station:wmo:42362:1,2011-09-04T20:15:00Z,27.7950,-90.6480,122.0,17.0,230.0,99.0,'11111222,11111222,11144222' 
ADCP,ioos:station:wmo:42362:1,2011-09-04T20:30:00Z,27.7950,-90.6480,122.0,17.0,230.0,99.0,'11111222,11111222,11144222' 
ADCP,ioos:station:wmo:42362:1,2011-09-04T20:45:00Z,27.7950,-90.6480,122.0,16.0,220.0,99.0,'11111222,11111222,11144222' 
ADCP,ioos:station:wmo:42362:1,2011-09-04T21:00:00Z,27.7950,-90.6480,122.0,16.0,220.0,99.0,'11111222,11111222,11144222' 
ADCP,ioos:station:wmo:42362:1,2011-09-04T21:15:00Z,27.7950,-90.6480,122.0,16.0,210.0,99.0,'11111222,11111222,11144222' 
ADCP,ioos:station:wmo:42362:1,2011-09-04T21:30:00Z,27.7950,-90.6480,122.0,15.0,210.0,99.0,'11111222,11111222,11144222' 
ADCP,ioos:station:wmo:42362:1,2011-09-04T21:45:00Z,27.7950,-90.6480,122.0,17.0,220.0,99.0,'11111222,11111222,11144222' 
ADCP,ioos:station:wmo:42362:1,2011-09-04T22:00:00Z,27.7950,-90.6480,122.0,17.0,220.0,99.0,'11111222,11111222,11144222' 
ADCP,ioos:station:wmo:42362:1,2011-09-05T09:45:00Z,27.7950,-90.6480,122.0,18.0,240.0,99.0,'11111222,11111222,11144222' 
ADCP,ioos:station:wmo:42362:1,2011-09-05T11:30:00Z,27.7950,-90.6480,122.0,15.0,270.0,99.0,'11111222,11111222,11144222' 
ADCP,ioos:station:wmo:42362:1,2011-09-05T13:00:00Z,27.7950,-90.6480,122.0,17.0,280.0,99.0,'11111222,11111222,11144222' 
ADCP,ioos:station:wmo:42362:1,2011-09-05T13:15:00Z,27.7950,-90.6480,122.0,17.0,280.0,99.0,'11111222,11111222,11144222' 
ADCP,ioos:station:wmo:42362:1,2011-09-05T13:30:00Z,27.7950,-90.6480,122.0,16.0,290.0,99.0,'11111222,11111222,11144222' 
ADCP,ioos:station:wmo:42362:1,2011-09-05T13:45:00Z,27.7950,-90.6480,122.0,16.0,290.0,99.0,'11111222,11111222,11144222' 
ADCP,ioos:station:wmo:42362:1,2011-09-05T14:00:00Z,27.7950,-90.6480,122.0,16.0,290.0,99.0,'11111222,11111222,11144222' 
ADCP,ioos:station:wmo:42362:1,2011-09-05T14:15:00Z,27.7950,-90.6480,122.0,16.0,300.0,99.0,'11111222,11111222,11144222' 
ADCP,ioos:station:wmo:42362:1,2011-09-05T14:30:00Z,27.7950,-90.6480,122.0,16.0,290.0,99.0,'11111222,11111222,11144222' 
ADCP,ioos:station:wmo:42362:1,2011-09-05T14:45:00Z,27.7950,-90.6480,122.0,15.0,300.0,99.0,'11111222,11111222,11144222' 
ADCP,ioos:station:wmo:42362:1,2011-09-05T15:00:00Z,27.7950,-90.6480,122.0,15.0,310.0,99.0,'11111222,11111222,11144222' 
ADCP,ioos:station:wmo:42362:1,2011-09-05T15:15:00Z,27.7950,-90.6480,122.0,15.0,310.0,99.0,'11111222,11111222,11144222' 
ADCP,ioos:station:wmo:42362:1,2011-09-05T15:30:00Z,27.7950,-90.6480,122.0,15.0,310.0,99.0,'11111222,11111222,11144222' 
ADCP,ioos:station:wmo:42362:1,2011-09-05T15:45:00Z,27.7950,-90.6480,122.0,15.0,320.0,99.0,'11111222,11111222,11144222' 
ADCP,ioos:station:wmo:42362:1,2011-09-05T16:00:00Z,27.7950,-90.6480,122.0,14.0,320.0,99.0,'11111222,11111222,11144222' 
ADCP,ioos:station:wmo:42362:1,2011-09-05T16:15:00Z,27.7950,-90.6480,122.0,14.0,320.0,99.0,'11111222,11111222,11144222' 
ADCP,ioos:station:wmo:42362:1,2011-09-05T16:30:00Z,27.7950,-90.6480,122.0,14.0,330.0,99.0,'11111222,11111222,11144222' 